User: anonymous   Login
Location: Holcomb Observatory
(44.4922°N, 73.1654°W)
Time: 14:48:05
(UTC-04:00)
Language:

SL-16 R/B - Orbit

View from above orbital plane
View from above orbital plane
View from above satellite
View from above satellite

Ground track
Ground track

The orbit data is extracted from the following two-line orbital elements,

1 27006U 01056F   14296.57527275  .00000048  00000-0  10112-3 0  2734
2 27006 099.1786 098.6549 0013869 318.5628 082.4205 13.70925727643915
Epoch (UTC): 23 October 2014 13:48:23
Eccentricity: 0.0013869
inclination: 99.1786°
perigee height: 986 km
apogee height: 1006 km
right ascension of ascending node: 98.6549°
argument of perigee: 318.5628°
revolutions per day: 13.70925727
mean anomaly at epoch: 82.4205°
orbit number at epoch: 64391

The dashed part of the orbit path shows where the satellite is in the earth's shadow,  

DLR